EW4089 Weather Reports


time (UTC)temp
C
wind
direction
speed
KPH
gust
KPH
rain 1hr
cm
rain 24hr
cm
rain mn
cm
humidity
%
barometer
mb
20260506205103 30 205 6.4 12.9 0.00 0.00 0.00 85 1006.5
20260506204545 30 146 6.4 12.9 0.00 0.00 0.00 85 1006.5
20260506204033 29 199 8.0 12.9 0.00 0.00 0.00 85 1006.6
20260506203514 29 130 6.4 12.9 0.00 0.00 0.00 87 1006.7
20260506203005 29 195 8.0 14.5 0.00 0.00 0.00 86 1006.6
20260506202441 29 203 8.0 14.5 0.00 0.00 0.00 85 1006.6
20260506201928 29 184 8.0 14.5 0.00 0.00 0.00 87 1006.6
20260506201429 29 165 9.7 16.1 0.00 0.00 0.00 87 1006.8
20260506200929 29 153 9.7 16.1 0.00 0.00 0.00 87 1006.9
20260506200419 29 134 11.3 17.7 0.00 0.00 0.00 87 1006.8
20260506195857 28 121 11.3 17.7 0.00 0.00 0.00 88 1006.9
20260506195608 28 142 11.3 16.1 0.00 0.00 0.00 88 1007.0
20260506195056 28 181 12.9 19.3 0.00 0.00 0.00 88 1007.1
20260506194321 28 126 12.9 20.9 0.00 0.00 0.00 88 1007.1
20260506193810 28 130 12.9 20.9 0.00 0.00 0.00 88 1007.2
20260506193544 28 150 12.9 20.9 0.00 0.00 0.00 88 1007.3
20260506192746 28 198 11.3 19.3 0.00 0.00 0.00 87 1007.3
20260506192243 28 111 11.3 24.1 0.00 0.00 0.00 88 1007.5
20260506191711 28 134 11.3 24.1 0.00 0.00 0.00 88 1007.5
20260506191210 28 150 11.3 20.9 0.00 0.00 0.00 89 1007.6
20260506190705 28 91 9.7 19.3 0.00 0.00 0.00 89 1007.7
20260506190136 28 161 11.3 20.9 0.00 0.00 0.00 89 1007.7
20260506185630 28 142 12.9 22.5 0.00 0.00 0.00 90 1007.8
20260506185111 28 180 9.7 22.5 0.00 0.00 0.00 90 1008.0
20260506184600 27 163 6.4 14.5 0.00 0.00 0.00 91 1008.1
20260506184039 27 99 4.8 11.3 0.00 0.00 0.00 92 1008.0
20260506183537 27 98 4.8 12.9 0.00 0.00 0.00 92 1008.1
20260506183009 27 98 6.4 14.5 0.00 0.00 0.00 91 1008.1
20260506182505 27 126 8.0 17.7 0.00 0.00 0.00 92 1008.3
20260506181938 27 92 9.7 17.7 0.00 0.00 0.00 91 1008.3
20260506181405 27 124 8.0 14.5 0.00 0.00 0.00 91 1008.4
20260506180834 27 113 6.4 12.9 0.00 0.00 0.00 92 1008.5
20260506180328 27 113 8.0 16.1 0.00 0.00 0.00 91 1008.5
20260506175819 27 110 8.0 16.1 0.00 0.00 0.00 91 1008.4
20260506175257 27 123 8.0 14.5 0.00 0.00 0.00 91 1008.6
20260506174753 27 138 8.0 14.5 0.00 0.00 0.00 91 1008.6
20260506174246 27 94 9.7 14.5 0.00 0.00 0.00 91 1008.6
20260506174003 27 174 9.7 20.9 0.00 0.00 0.00 91 1008.6
20260506173235 27 147 9.7 20.9 0.00 0.00 0.00 91 1008.6
20260506172730 27 152 11.3 17.7 0.00 0.00 0.00 91 1008.7
20260506172435 27 139 11.3 24.1 0.00 0.00 0.00 91 1008.6
20260506171917 27 121 11.3 24.1 0.00 0.00 0.00 91 1008.5
20260506171157 27 119 11.3 20.9 0.00 0.00 0.00 91 1008.6
20260506170912 27 132 12.9 17.7 0.00 0.00 0.00 91 1008.5
20260506170149 27 165 11.3 19.3 0.00 0.00 0.00 91 1008.6
20260506165643 27 120 11.3 19.3 0.00 0.00 0.00 91 1008.5
20260506165357 27 107 11.3 19.3 0.00 0.00 0.00 91 1008.5
20260506164629 27 104 12.9 19.3 0.00 0.00 0.00 91 1008.5
20260506164103 27 88 12.9 20.9 0.00 0.00 0.00 92 1008.6
20260506163558 27 117 11.3 20.9 0.00 0.00 0.00 91 1008.5
20260506163258 27 124 11.3 17.7 0.00 0.00 0.00 92 1008.5
20260506162530 27 92 11.3 17.7 0.00 0.00 0.00 92 1008.5
20260506162003 27 128 12.9 17.7 0.00 0.00 0.00 92 1008.4
20260506161435 27 97 11.3 20.9 0.00 0.00 0.00 92 1008.2
20260506160927 27 94 11.3 14.5 0.00 0.00 0.00 91 1008.3
20260506160419 27 91 14.5 0.0 0.00 0.00 0.00 92 1008.0
20260506160004 27 89 14.5 27.4 0.00 0.00 0.00 92 1008.2
20260506155454 27 92 14.5 20.9 0.00 0.00 0.00 93 1007.9
20260506154936 27 94 12.9 22.5 0.00 0.00 0.00 94 1007.7
20260506154427 26 108 11.3 20.9 0.00 0.00 0.00 94 1007.7
20260506153928 26 108 11.3 20.9 0.00 0.00 0.00 95 1007.6
20260506153419 26 86 11.3 17.7 0.00 0.00 0.00 96 1007.6
20260506153123 26 98 9.7 16.1 0.00 0.00 0.00 96 1007.7
20260506152348 26 100 9.7 16.1 0.00 0.00 0.00 96 1007.8
20260506152055 26 99 11.3 17.7 0.00 0.00 0.00 96 1007.7
20260506151327 26 101 8.0 17.7 0.00 0.00 0.00 96 1007.6
20260506150829 26 92 6.4 16.1 0.00 0.00 0.00 97 1007.5
20260506150304 25 94 9.7 14.5 0.00 0.00 0.00 97 1007.4
20260506145735 25 94 8.0 16.1 0.00 0.00 0.00 97 1007.4
20260506145231 25 94 8.0 16.1 0.00 0.00 0.00 97 1007.3
20260506144948 25 98 8.0 12.9 0.00 0.00 0.00 97 1007.4
20260506144221 25 98 8.0 16.1 0.00 0.00 0.00 97 1007.3
20260506143657 25 98 6.4 16.1 0.00 0.00 0.00 97 1007.2
20260506143151 25 97 8.0 14.5 0.00 0.00 0.00 97 1007.2
20260506142627 25 97 8.0 14.5 0.00 0.00 0.00 97 1007.2
20260506142345 25 97 8.0 14.5 0.00 0.00 0.00 97 1007.1
20260506141617 25 85 8.0 14.5 0.00 0.00 0.00 97 1007.1
20260506141112 25 86 8.0 14.5 0.00 0.00 0.00 97 1007.0
20260506140605 25 85 6.4 14.5 0.00 0.00 0.00 97 1007.2
20260506135535 25 101 8.0 14.5 0.00 0.00 0.00 97 1007.1
20260506135032 25 94 6.4 12.9 0.00 0.00 0.00 97 1007.3
20260506134726 25 95 8.0 12.9 0.00 0.00 0.00 97 1007.2
20260506133923 25 95 6.4 11.3 0.00 0.00 0.00 97 1007.2
20260506133355 25 96 6.4 11.3 0.00 0.00 0.00 97 1007.2
20260506133113 25 96 8.0 12.9 0.00 0.00 0.00 97 1007.2
20260506132323 25 96 6.4 12.9 0.00 0.00 0.00 97 1007.3
20260506131823 25 97 4.8 11.3 0.00 0.00 0.00 97 1007.4
20260506131539 25 97 4.8 11.3 0.00 0.00 0.00 97 1007.2
20260506131035 25 97 6.4 11.3 0.00 0.00 0.00 97 1007.3
20260506130302 25 98 6.4 11.3 0.00 0.00 0.00 97 1007.1
20260506130028 25 99 4.8 9.7 0.00 0.00 0.00 97 1007.1
20260506125235 25 98 6.4 9.7 0.00 0.00 0.00 97 1007.0
20260506124727 25 98 6.4 9.7 0.00 0.00 0.00 97 1007.1
20260506124220 25 98 4.8 8.0 0.00 0.00 0.00 97 1007.1
20260506123714 25 98 4.8 9.7 0.00 0.00 0.00 97 1007.0
20260506123150 25 98 4.8 9.7 0.00 0.00 0.00 97 1007.0
20260506122624 25 98 3.2 8.0 0.00 0.00 0.00 97 1007.1
20260506122119 25 98 3.2 8.0 0.00 0.00 0.00 97 1007.2
20260506121546 25 98 4.8 9.7 0.00 0.00 0.00 97 1007.0
20260506121039 25 98 4.8 8.0 0.00 0.00 0.00 97 1007.0
20260506120505 25 98 4.8 9.7 0.00 0.00 0.00 97 1007.0
20260506115958 25 98 6.4 8.0 0.00 0.00 0.00 97 1006.9
20260506115435 25 99 6.4 9.7 0.00 0.00 0.00 97 1006.7
20260506114933 25 99 4.8 9.7 0.00 0.00 0.00 97 1006.9
20260506114405 25 99 4.8 11.3 0.00 0.00 0.00 97 1006.8
20260506113901 25 99 4.8 11.3 0.00 0.00 0.00 97 1006.8
20260506113355 25 103 4.8 8.0 0.00 0.00 0.00 97 1006.8
20260506113116 25 103 3.2 8.0 0.00 0.00 0.00 97 1006.8
20260506112345 25 103 3.2 9.7 0.00 0.00 0.00 97 1006.8
20260506111841 25 103 3.2 9.7 0.00 0.00 0.00 97 1006.8
20260506111316 25 103 4.8 11.3 0.00 0.00 0.00 97 1006.8
20260506110806 25 103 4.8 11.3 0.00 0.00 0.00 97 1006.7
20260506110522 25 104 4.8 9.7 0.00 0.00 0.00 97 1006.7
20260506105727 25 103 4.8 9.7 0.00 0.00 0.00 97 1006.7
20260506105202 25 103 6.4 12.9 0.00 0.00 0.00 97 1006.5
20260506104657 25 103 8.0 14.5 0.00 0.00 0.00 97 1006.5
20260506104406 25 103 6.4 14.5 0.00 0.00 0.00 97 1006.5
20260506103637 25 101 6.4 11.3 0.00 0.00 0.00 97 1006.4
20260506103336 25 101 6.4 11.3 0.00 0.00 0.00 97 1006.5
20260506102834 25 101 6.4 11.3 0.00 0.00 0.00 97 1006.4
20260506102053 25 101 6.4 11.3 0.00 0.00 0.00 97 1006.5
20260506101553 25 101 4.8 11.3 0.00 0.00 0.00 97 1006.5
20260506101056 25 101 4.8 11.3 0.00 0.00 0.00 97 1006.4
20260506100549 25 101 6.4 12.9 0.00 0.00 0.00 97 1006.4
20260506100024 25 101 6.4 12.9 0.00 0.00 0.00 96 1006.3
20260506095737 25 101 6.4 9.7 0.00 0.00 0.00 96 1006.3
20260506094953 25 100 4.8 9.7 0.00 0.00 0.00 96 1006.4
20260506094449 25 100 4.8 9.7 0.00 0.00 0.00 96 1006.4
20260506094150 25 100 4.8 9.7 0.00 0.00 0.00 96 1006.4
20260506093416 25 100 4.8 9.7 0.00 0.00 0.00 96 1006.2
20260506092854 25 100 4.8 9.7 0.00 0.00 0.00 96 1006.3
20260506092344 25 100 6.4 11.3 0.00 0.00 0.00 96 1006.2
20260506091828 25 100 4.8 11.3 0.00 0.00 0.00 96 1006.2
20260506091324 25 100 3.2 9.7 0.00 0.00 0.00 96 1006.3
20260506091013 25 100 3.2 9.7 0.00 0.00 0.00 96 1006.4
20260506090224 25 100 4.8 11.3 0.00 0.00 0.00 96 1006.3
20260506085721 25 100 4.8 11.3 0.00 0.00 0.00 96 1006.2
20260506085207 25 100 4.8 8.0 0.00 0.00 0.00 96 1006.2
20260506084633 25 100 4.8 11.3 0.00 0.00 0.00 96 1006.3
20260506084102 25 100 4.8 11.3 0.00 0.00 0.00 96 1006.3
20260506083556 25 100 4.8 9.7 0.00 0.00 0.00 96 1006.4
20260506083051 25 100 6.4 12.9 0.00 0.00 0.00 96 1006.3
20260506082016 25 101 8.0 11.3 0.00 0.00 0.00 96 1006.1
20260506081455 25 101 8.0 14.5 0.00 0.00 0.00 96 1006.2
20260506080953 25 101 6.4 14.5 0.00 0.00 0.00 96 1006.2
20260506080441 25 101 6.4 14.5 0.00 0.00 0.00 96 1006.4
20260506073356 25 131 8.0 12.9 0.00 0.00 0.00 95 1006.7
20260506072854 25 140 8.0 16.1 0.00 0.00 0.00 95 1006.8
20260506072351 25 134 8.0 16.1 0.00 0.00 0.00 95 1006.8
20260506071847 25 150 8.0 16.1 0.00 0.00 0.00 95 1006.9
20260506071340 25 114 8.0 16.1 0.00 0.00 0.00 95 1007.1
20260506070837 25 114 9.7 16.1 0.00 0.00 0.00 95 1007.1
20260506070309 25 114 9.7 17.7 0.00 0.00 0.00 95 1007.1
20260506062040 25 158 8.0 14.5 0.00 0.00 0.00 94 1007.5
20260506061508 25 154 8.0 19.3 0.00 0.00 0.00 94 1007.6
20260506060443 25 151 11.3 24.1 0.00 0.00 0.00 94 1007.6
20260506060200 25 159 11.3 22.5 0.00 0.00 0.00 94 1007.6
20260506051319 26 140 12.9 22.5 0.00 0.00 0.00 93 1007.2
20260506050754 26 162 12.9 22.5 0.00 0.00 0.00 93 1007.0
20260506050233 26 145 12.9 22.5 0.00 0.00 0.00 93 1007.0
20260506044639 26 135 12.9 22.5 0.00 0.00 0.00 93 1007.0
20260506044108 25 149 11.3 22.5 0.00 0.00 0.00 94 1007.0
20260506043552 25 124 11.3 17.7 0.00 0.00 0.00 94 1007.1
20260506043049 25 140 11.3 20.9 0.00 0.00 0.00 94 1006.9
20260506042551 25 130 11.3 25.7 0.00 0.00 0.00 94 1006.7
20260506042027 25 130 11.3 25.7 0.00 0.00 0.00 94 1006.9
20260506041526 25 172 11.3 20.9 0.00 0.00 0.00 94 1006.8
20260506041017 25 132 11.3 22.5 0.00 0.00 0.00 94 1006.8
20260506040510 25 128 12.9 22.5 0.00 0.00 0.00 94 1006.8
20260506035946 25 157 12.9 22.5 0.00 0.00 0.00 94 1006.8
20260506035441 25 136 12.9 19.3 0.00 0.00 0.00 94 1006.7
20260506035208 25 136 11.3 19.3 0.00 0.00 0.00 94 1006.6
20260506034410 25 133 11.3 24.1 0.00 0.00 0.00 94 1006.6
20260506033903 25 127 12.9 24.1 0.00 0.00 0.00 94 1006.7
20260506033401 25 107 11.3 19.3 0.00 0.00 0.00 94 1006.6
20260506032827 25 115 11.3 19.3 0.00 0.00 0.00 94 1006.6
20260506032301 25 107 9.7 17.7 0.00 0.00 0.00 94 1006.6
20260506031742 25 171 9.7 17.7 0.00 0.00 0.00 94 1006.7
20260506031238 25 115 8.0 16.1 0.00 0.00 0.00 94 1006.7
20260506030731 25 132 9.7 16.1 0.00 0.00 0.00 94 1006.7
20260506030208 25 121 9.7 16.1 0.00 0.00 0.00 94 1006.6
20260506025704 25 138 9.7 17.7 0.00 0.00 0.00 94 1006.5
20260506025207 25 123 9.7 17.7 0.00 0.00 0.00 94 1006.5
20260506024647 25 132 9.7 17.7 0.00 0.00 0.00 94 1006.5
20260506024402 25 127 8.0 16.1 0.00 0.00 0.00 94 1006.3
20260506023646 25 146 8.0 16.1 0.00 0.00 0.00 94 1006.3
20260506023123 25 118 8.0 17.7 0.00 0.00 0.00 94 1006.2
20260506022552 25 128 8.0 17.7 0.00 0.00 0.00 94 1006.1
20260506022032 25 119 8.0 19.3 0.00 0.00 0.00 93 1006.1
20260506021530 25 122 8.0 19.3 0.00 0.00 0.00 93 1006.1
20260506021256 25 153 8.0 14.5 0.00 0.00 0.00 93 1006.1
20260506020501 26 148 8.0 19.3 0.00 0.00 0.00 93 1006.0
20260506015931 26 167 8.0 19.3 0.00 0.00 0.00 93 1005.9
20260506015405 26 149 9.7 19.3 0.00 0.00 0.00 93 1005.8
20260506014901 26 161 9.7 19.3 0.00 0.00 0.00 93 1005.6
20260506014359 26 160 9.7 17.7 0.00 0.00 0.00 93 1005.6
20260506013857 26 121 9.7 19.3 0.00 0.00 0.00 93 1005.5
20260506013345 26 163 12.9 24.1 0.00 0.00 0.00 93 1005.5
20260506013054 26 169 11.3 24.1 0.00 0.00 0.00 93 1005.2
20260506012340 26 117 11.3 17.7 0.00 0.00 0.00 93 1005.1
20260506011813 26 132 11.3 25.7 0.00 0.00 0.00 93 1005.1
20260506011314 26 115 11.3 22.5 0.00 0.00 0.00 92 1004.9
20260506010802 26 113 11.3 19.3 0.00 0.00 0.00 92 1005.0
20260506010305 26 171 9.7 17.7 0.00 0.00 0.00 92 1005.0
20260506005739 26 128 11.3 20.9 0.00 0.00 0.00 92 1005.0
20260506005211 26 125 11.3 20.9 0.00 0.00 0.00 91 1004.9
20260506004702 26 152 11.3 19.3 0.00 0.00 0.00 91 1004.9
20260506004421 26 153 11.3 25.7 0.00 0.00 0.00 91 1004.9
20260506003629 26 148 12.9 24.1 0.00 0.00 0.00 91 1004.7
20260506003101 26 134 14.5 24.1 0.00 0.00 0.00 91 1004.7
20260506002600 26 166 12.9 24.1 0.00 0.00 0.00 91 1004.8
20260506002101 26 114 11.3 22.5 0.00 0.00 0.00 91 1004.8
20260506001557 26 119 11.3 22.5 0.00 0.00 0.00 90 1004.8
20260506001054 26 103 11.3 20.9 0.00 0.00 0.00 90 1004.8
20260506000550 26 136 12.9 24.1 0.00 0.00 0.00 90 1004.7
20260506000045 26 155 14.5 24.1 0.00 0.00 0.00 89 1004.7
20260505235535 27 121 16.1 32.2 0.00 0.00 0.00 89 1004.7
20260505235011 27 145 17.7 32.2 0.00 0.00 0.00 88 1004.8
20260505234500 27 144 16.1 25.7 0.00 0.00 0.00 89 1004.7
20260505234158 27 153 14.5 25.7 0.00 0.00 0.00 88 1004.5
20260505233405 27 122 12.9 25.7 0.00 0.00 0.00 88 1004.6
20260505232845 27 167 14.5 22.5 0.00 0.00 0.00 88 1004.7
20260505232346 27 170 17.7 37.0 0.00 0.00 0.00 88 1004.8
20260505231843 27 157 17.7 37.0 0.00 0.00 0.00 88 1004.8
20260505231345 27 123 17.7 30.6 0.00 0.00 0.00 88 1004.9
20260505230821 27 108 16.1 30.6 0.00 0.00 0.00 88 1004.8
20260505230251 27 148 17.7 33.8 0.00 0.00 0.00 88 1004.7
20260505225719 27 130 17.7 33.8 0.00 0.00 0.00 87 1004.8
20260505225215 27 117 16.1 29.0 0.00 0.00 0.00 87 1004.7
20260505224934 27 132 16.1 29.0 0.00 0.00 0.00 87 1004.8
20260505224437 27 132 17.7 29.0 0.00 0.00 0.00 87 1004.9
20260505223650 27 133 16.1 29.0 0.00 0.00 0.00 87 1004.9
20260505223143 27 157 16.1 27.4 0.00 0.00 0.00 87 1005.0
20260505222642 27 148 17.7 27.4 0.00 0.00 0.00 87 1005.1
20260505222135 27 142 16.1 33.8 0.00 0.00 0.00 87 1005.1
20260505221629 27 132 16.1 33.8 0.00 0.00 0.00 86 1005.1
20260505221101 27 147 17.7 30.6 0.00 0.00 0.00 86 1005.2
20260505220531 27 126 16.1 30.6 0.00 0.00 0.00 86 1005.1
20260505220030 27 123 16.1 32.2 0.00 0.00 0.00 86 1005.1
20260505215503 27 171 17.7 35.4 0.00 0.00 0.00 86 1005.2
20260505215005 27 144 17.7 35.4 0.00 0.00 0.00 86 1005.3
20260505214437 27 153 16.1 33.8 0.00 0.00 0.00 85 1005.4
20260505213937 27 122 16.1 30.6 0.00 0.00 0.00 85 1005.5
20260505213648 27 122 14.5 30.6 0.00 0.00 0.00 85 1005.4
20260505212901 27 129 16.1 37.0 0.00 0.00 0.00 85 1005.5
20260505212334 27 135 17.7 37.0 0.00 0.00 0.00 84 1005.6
20260505211835 27 134 17.7 29.0 0.00 0.00 0.00 84 1005.6
20260505211336 27 143 16.1 29.0 0.00 0.00 0.00 84 1005.6
20260505210839 27 153 16.1 27.4 0.00 0.00 0.00 83 1005.7
20260505210335 27 107 14.5 25.7 0.00 0.00 0.00 84 1005.8
20260505205825 28 179 12.9 25.7 0.00 0.00 0.00 83 1005.8
20260505205258 28 128 14.5 20.9 0.00 0.00 0.00 84 1005.8